Torna al catalogo

DELTA 1 DEB *

AttivoSSO
NORAD 8791·DEBRIS·🇺🇸 United States

Lanciato Oct 2, 1966 da Vandenberg Space Force Base

Loading…

Prossimi Passaggi (prossime 24 ore)

TLE

AggiornatoSource: Space-Track

Epoca: Sep 12, 2026, 22:05 UTC

1  8791U 66087F   26255.92065138  .00000142  00000-0  98298-3 0  9992
2  8791 101.6560 236.6196 0141600  27.5212 359.0698 12.63970459755496

Traccia DELTA 1 DEB * in tempo reale con AllMySat

Download on the App Store